Simultaneous Nadir Overpasses (SNOs) Predictions

Prediction of SNOs over PacNW region [( 10.00, 139.50) to ( 22.70, 165.60)] between NOAA-19 and NPP Satellites:

Table of predicted SNOs over PacNW region for the next 30.0 days since TLE Epoch: 8/31/2012
Index Date (NOAA-19) Time (NOAA-19) NOAA-19 Lat,Lon Date (NPP) Time (NPP) NPP Lat,Lon Distance(km) Time Diff (sec)
1 09/02/2012 15:52:12 22.63, 148.97 09/02/2012 15:53:28 23.28, 146.17 295.09 76
2 09/03/2012 03:08:46 22.66, 152.40 09/03/2012 03:06:11 22.27, 150.65 185.33 155
3 09/14/2012 15:24:30 22.60, 155.91 09/14/2012 15:27:58 23.33, 152.54 354.39 208
4 09/15/2012 02:41:07 22.67, 159.34 09/15/2012 02:40:42 22.22, 157.01 244.04 25
5 09/15/2012 15:17:17 10.01, 155.58 09/15/2012 15:13:40 6.66, 153.37 445.80 217
6 09/27/2012 03:54:25 18.83, 141.72 09/27/2012 03:55:31 18.21, 138.99 296.00 66
7 09/27/2012<
